This demonstration page uses our WeatherBlox Daily Observations layout. Learn more.

Left ArrowRight Arrow

Hourly Observations for May 24, 2022

Temp ( °F °C ) Dew Point ( °F °C ) Humidity (%) Winds ( mph kmh ) Pressure ( in mb ) Visibility ( mi km ) Precip ( " mm )
12:53 am 00:53 Clear 33 0.6 29 -1.7 85 85 Calm 30.01 1016 10 16 0.00 0.00
1:53 am 01:53 Clear 32 0 29 -1.7 88 88 W 3 6 30.00 1016 10 16 0.00 0.00
2:53 am 02:53 Mostly Cloudy 33 0.6 29 -1.7 85 85 Calm 29.98 1015 10 16 0.00 0.00
3:53 am 03:53 Mostly Cloudy 33 0.6 30 -1.1 89 89 Calm 29.99 1016 10 16 0.00 0.00
4:53 am 04:53 Clear 33 0.6 30 -1.1 89 89 Calm 29.98 1015 10 16 0.00 0.00
5:53 am 05:53 Mostly Cloudy 33 0.6 29 -1.7 85 85 Calm 30.00 1016 10 16 0.00 0.00
6:53 am 06:53 Sunny 35 1.7 32 0 89 89 Calm 30.01 1016 10 16 0.00 0.00
7:53 am 07:53 Sunny 38 3.3 34 1.1 86 86 Calm 30.01 1016 10 16 0.00 0.00
8:53 am 08:53 Sunny 42 5.6 34 1.1 73 73 NW 5 7 30.01 1016 10 16 0.00 0.00
9:53 am 09:53 Sunny 48 8.9 34 1.1 58 58 WNW 7 11 29.99 1016 10 16 0.00 0.00
10:53 am 10:53 Sunny 52 11.1 35 1.7 53 53 WSW 9 15 29.97 1015 10 16 0.00 0.00
11:53 am 11:53 Sunny 56 13.3 33 0.6 42 42 undefined N/A 29.93 1014 10 16 0.00 0.00
12:53 pm 12:53 Cloudy 51 10.6 32 0 48 48 SW 12 19 29.98 1015 10 16 0.01 0.25
1:53 pm 13:53 Cloudy 48 8.9 33 0.6 56 56 VRB 7 11 30.03 1017 10 16 0.00 0.00
2:19 pm 14:19 Cloudy with Light Rain 46 7.8 36 2.2 68 68 ESE 10 17 29.91 1013 6 10 0.02 0.51
2:28 pm 14:28 Cloudy 48 8.9 38 3.3 68 68 ESE 13 20 29.88 1012 10 16 0.02 0.51
2:40 pm 14:40 Partly Cloudy 50 10 38 3.3 63 63 E 8 13 29.85 1011 10 16 0.02 0.51
2:53 pm 14:53 Mostly Sunny 52 11.1 37 2.8 57 57 E 7 11 29.98 1015 10 16 0.02 0.51
3:53 pm 15:53 Mostly Sunny 56 13.3 32 0 40 40 Calm 29.94 1014 10 16 0.00 0.00
4:12 pm 16:12 Mostly Cloudy with Thunderstorms 54 12.2 31 -0.6 42 42 N 9 15 29.79 1009 10 16 0.00 0.00
4:53 pm 16:53 Cloudy 55 12.8 32 0 42 42 N 9 15 29.96 1015 10 16 0.00 0.00
5:53 pm 17:53 Sunny 58 14.4 29 -1.7 33 33 W 5 7 29.94 1014 10 16 0.00 0.00
6:53 pm 18:53 Sunny 53 11.7 28 -2.2 38 38 NNW 10 17 29.97 1015 10 16 0.00 0.00
7:32 pm 19:32 Windy with Storms Likely 44 6.7 34 1.1 68 68 WNW 25 41 29.97 1015 10 16 0.00 0.00
7:53 pm 19:53 Cloudy with Nearby Thunderstorms 44 6.7 33 0.6 65 65 SW 18 30 30.03 1017 10 16 0.00 0.00
8:01 pm 20:01 Cloudy 45 7.2 32 0 61 61 S 12 19 29.94 1014 10 16 0.00 0.00
8:53 pm 20:53 Clear 45 7.2 30 -1.1 56 56 WNW 3 6 30.02 1017 10 16 0.00 0.00
9:53 pm 21:53 Mostly Cloudy 41 5 32 0 70 70 SSW 9 15 30.04 1017 10 16 0.00 0.00
10:53 pm 22:53 Clear 39 3.9 31 -0.6 73 73 NE 5 7 30.05 1018 10 16 0.00 0.00
11:53 pm 23:53 Partly Cloudy 39 3.9 30 -1.1 70 70 VRB 3 6 30.04 1017 10 16 0.00 0.00

Powered by AerisWeather